User: anonymous   Login
Location: ECC Obs
(38.4314°N, 90.9815°W)
Time: 03:46:21
(UTC-05:00)
Language:

Transit 4A - Orbit

View from above orbital plane
View from above orbital plane
View from above satellite
View from above satellite

Ground track
Ground track

The orbit data is extracted from the following two-line orbital elements,

1   116U 61015A   20094.80955455 -.00000020 +00000-0 +43374-4 0  9995
2   116 066.8120 030.6885 0069874 058.1917 302.5941 13.91767917981438
Epoch (UTC): 03 April 2020 19:25:45
Eccentricity: 0.0069874
inclination: 66.8120°
perigee height: 871 km
apogee height: 973 km
right ascension of ascending node: 30.6885°
argument of perigee: 58.1917°
revolutions per day: 13.91767917
mean anomaly at epoch: 302.5941°
orbit number at epoch: 98143

The dashed part of the orbit path shows where the satellite is in the earth's shadow,  

DLR